Theta_e
310 310 310 310 311 312 315 317 319 320 321 321 322 322 321 321 321 321 320 320 319 317 316 314 313 312 312 312 312 312 312 311 311 310 309 309 308 307 306 305 304 303 301 300 299 299 299 299 298 298 298 297 296 295 295 295 294 294 294 294 294 293 293 293 293 294 299 300 296 295 296 295 295 295 294 295 295 295 295 295 295 295 295 295 296
312 311 311 311 311 312 314 316 317 318 319 320 320 320 319 319 320 319 317 315 314 313 312 312 312 312 312 312 311 311 310 310 309 308 308 307 306 305 303 302 301 300 299 299 298 298 298 298 298 297 296 296 295 295 294 294 294 294 294 293 293 293 292 292 292 292 295 298 296 295 295 295 295 295 294 294 294 294 294 294 294 294 294 294 294
313 313 312 312 312 312 313 314 315 316 316 317 318 318 318 318 318 316 314 313 312 312 312 312 312 312 311 311 310 309 309 308 307 307 305 304 303 301 300 299 299 299 298 298 298 298 298 297 297 295 295 294 294 294 294 294 294 294 294 293 293 293 292 291 292 292 292 295 296 295 295 294 295 294 293 293 293 293 293 293 293 293 293 293 293
315 314 314 314 313 313 313 314 315 315 316 317 317 317 316 315 314 313 312 312 311 311 311 311 311 310 310 309 309 308 308 307 305 304 303 301 300 299 299 299 299 298 298 298 298 297 296 295 294 294 294 294 293 293 293 293 293 293 293 293 293 293 292 292 291 291 291 293 295 295 294 293 293 293 292 292 292 292 292 292 292 291 291 291 291
315 315 315 315 315 315 315 316 316 316 316 316 316 314 313 312 312 311 311 311 311 311 311 310 310 309 309 308 308 307 306 305 303 301 300 299 299 299 299 299 298 298 297 296 296 295 294 294 293 293 293 293 293 293 293 293 293 293 293 293 292 292 292 291 291 291 291 291 293 294 294 293 292 292 291 291 291 291 290 291 290 290 291 290 291
315 315 315 315 315 315 315 315 315 315 314 314 313 312 312 311 311 311 310 311 310 310 309 309 309 308 308 307 306 305 303 302 300 300 299 299 299 299 298 298 297 296 295 294 294 293 293 293 293 293 293 293 293 293 293 293 293 293 292 292 291 291 291 291 290 290 290 290 290 291 292 292 291 291 290 290 290 290 290 290 290 290 291 291 291
314 314 314 314 314 314 314 313 313 313 313 312 312 311 311 311 310 310 310 309 309 309 309 308 308 307 306 305 304 302 301 300 299 299 299 299 298 298 297 296 295 294 293 293 293 293 293 293 293 293 293 293 293 293 293 292 292 291 291 291 290 290 290 290 290 289 289 290 290 290 290 290 290 290 290 289 289 290 290 291 291 290 291 291 290
314 314 314 313 313 313 313 313 312 312 312 311 311 311 310 310 310 310 309 309 308 308 307 307 306 305 304 302 301 300 300 300 299 299 298 297 297 296 295 294 294 293 293 293 293 293 293 293 293 293 293 292 292 292 291 291 291 290 290 289 289 289 289 289 289 289 289 289 289 289 289 289 289 289 289 289 289 290 290 290 290 290 291 291 291
313 313 313 313 313 313 312 312 312 311 311 311 310 310 310 309 309 309 308 308 307 307 306 304 303 302 300 300 299 299 299 299 298 297 296 296 295 294 294 293 293 293 293 293 293 293 293 293 293 292 292 292 291 291 291 290 290 289 289 289 288 288 288 288 288 288 289 289 289 289 289 289 289 289 289 289 289 289 289 289 290 290 290 291 290
313 313 313 313 312 312 312 311 311 310 310 310 310 310 309 309 309 308 307 306 305 304 303 301 300 299 299 299 299 299 298 298 297 296 295 294 293 293 293 293 293 293 293 293 293 293 293 292 292 292 292 292 291 291 290 290 289 289 288 288 288 288 288 288 288 288 288 288 288 288 289 289 289 289 289 289 289 289 289 289 290 289 289 289 290
312 312 312 312 312 312 311 311 310 310 309 309 309 309 308 308 307 306 305 304 302 301 299 299 299 299 299 298 297 297 296 296 295 294 294 293 293 293 293 293 293 293 293 293 292 292 292 292 292 292 291 291 291 290 290 289 289 289 288 288 288 288 288 288 288 288 288 288 288 288 288 288 288 288 288 288 288 288 288 288 288 288 289 290 290
312 312 312 311 311 311 311 310 310 309 309 308 308 308 307 306 305 303 302 300 299 299 298 298 298 298 297 296 296 295 295 294 294 293 293 293 293 293 293 293 293 292 292 292 292 292 292 291 291 291 290 290 290 289 289 289 288 288 288 288 288 288 288 288 287 287 287 287 287 287 287 287 287 287 287 286 286 286 286 286 286 287 288 289 289
312 311 311 311 311 311 310 310 309 308 308 307 307 306 305 303 302 300 299 299 298 298 298 297 297 296 295 295 294 294 293 293 293 293 293 293 293 293 293 292 292 292 292 292 291 291 291 291 290 290 289 289 288 288 288 288 288 288 288 288 288 288 288 288 287 287 286 285 286 286 286 286 286 286 286 285 285 285 286 286 286 286 287 287 287
311 311 311 310 310 310 310 309 308 307 307 305 305 303 302 301 299 298 298 298 298 297 297 296 295 294 294 294 293 293 293 293 293 293 293 293 292 292 292 292 292 292 291 291 291 290 290 290 289 289 288 288 288 288 288 287 287 288 288 288 288 288 288 287 287 286 285 285 285 285 285 285 285 285 285 285 286 286 286 286 286 286 286 287 287
311 310 310 310 309 309 309 308 307 306 305 303 302 300 299 299 298 298 298 297 296 296 295 294 294 293 293 293 293 293 293 293 293 293 292 292 292 292 292 292 291 291 291 291 290 290 289 289 288 288 288 287 287 287 287 287 287 288 288 288 288 288 288 287 286 285 285 284 285 285 285 285 285 286 286 286 287 287 287 287 287 287 287 288 288
310 310 310 309 308 308 307 306 305 304 302 301 299 298 298 298 298 298 297 296 295 294 294 293 293 293 293 293 293 293 293 293 293 292 292 292 292 291 291 291 291 291 290 290 289 289 288 288 288 287 287 287 287 287 287 287 288 288 288 289 289 288 288 287 286 286 285 285 285 285 285 286 286 286 287 287 287 287 287 288 288 288 288 288 288
310 309 309 308 307 306 305 304 303 302 300 298 298 297 298 298 298 296 295 295 294 293 293 293 293 293 292 293 293 293 293 293 292 292 292 291 291 291 291 291 291 290 290 289 289 288 288 287 287 287 287 287 287 287 287 287 288 288 288 288 289 288 288 287 286 286 285 285 285 285 286 286 286 286 287 287 286 286 287 287 287 288 288 288 288
309 308 307 306 305 303 302 301 301 300 298 297 298 298 297 297 296 295 294 293 293 293 293 292 292 292 292 292 292 292 292 292 292 291 291 291 291 291 290 290 290 289 289 288 288 287 287 287 287 286 287 287 287 287 287 287 287 287 287 287 287 288 287 287 286 286 285 285 285 285 286 286 286 286 286 286 286 286 286 287 287 287 288 288 288
308 307 306 304 303 301 299 298 298 298 298 297 297 297 296 295 295 294 293 293 292 292 292 292 292 292 292 292 292 292 292 291 291 291 291 290 290 290 290 289 289 289 288 288 287 287 287 286 286 286 286 286 287 287 287 286 286 286 286 285 286 286 286 286 285 285 285 285 285 285 286 286 286 285 285 286 286 286 286 286 286 286 287 287 287
307 306 304 303 301 299 298 297 297 298 298 297 296 296 295 294 293 293 292 292 292 292 292 292 292 292 292 292 292 291 291 291 290 290 290 290 290 289 289 288 288 288 287 287 287 286 286 286 286 286 286 286 287 287 286 286 285 285 284 284 284 285 285 284 284 284 284 284 285 285 285 285 285 285 285 285 285 285 285 285 285 285 285 286 286
306 304 303 301 299 298 297 297 297 297 296 296 295 294 293 293 292 292 292 292 292 292 292 291 292 292 292 291 291 291 290 290 290 290 289 289 289 288 288 288 288 287 287 286 286 286 286 286 286 286 286 286 286 286 286 285 285 284 284 283 283 283 283 283 284 284 284 284 285 285 285 285 285 284 284 284 284 284 284 284 284 284 284 285 285
304 303 301 299 298 297 296 296 296 296 295 294 294 294 293 292 292 291 291 291 291 291 291 291 291 291 291 291 290 290 290 290 289 289 289 288 288 288 287 287 287 286 286 286 286 286 286 286 286 286 286 286 286 286 286 285 285 284 283 283 283 283 283 283 283 283 284 284 284 285 285 285 285 284 284 284 284 284 284 284 284 284 284 284 284
302 300 298 297 296 296 296 296 295 294 294 293 293 293 292 292 291 291 291 291 291 291 291 291 291 291 290 290 290 290 289 289 289 288 288 288 287 287 287 286 286 286 286 286 286 286 286 286 286 286 286 286 286 285 285 285 284 284 283 283 283 283 283 283 283 283 283 284 284 284 284 284 284 284 284 284 284 284 284 284 284 284 284 284 284
299 297 296 296 296 295 295 295 294 294 293 293 292 292 291 291 291 291 291 291 291 291 291 290 290 290 290 289 289 289 289 288 288 288 287 287 287 287 286 286 286 286 286 285 285 285 285 285 285 285 285 285 285 285 285 284 284 284 283 283 284 284 284 284 284 284 284 284 284 284 284 284 284 283 283 283 283 284 284 284 284 284 284 284 284
297 296 295 295 295 295 295 294 294 293 292 292 291 291 291 291 291 291 291 291 290 290 290 290 290 289 289 289 289 288 288 288 288 287 287 287 286 286 286 286 285 285 285 285 285 285 285 285 285 285 285 285 285 285 285 284 284 284 284 284 284 284 283 283 284 283 283 283 283 283 283 283 283 283 282 282 283 283 283 283 284 284 284 284 283
296 295 295 295 295 295 295 294 293 292 292 291 291 291 291 291 291 291 291 290 290 290 290 289 289 289 288 288 288 288 288 287 287 287 287 286 286 286 286 285 285 285 285 285 285 285 285 285 285 285 285 284 284 284 284 284 284 284 283 283 283 283 282 282 282 282 281 281 281 281 281 281 282 282 282 282 282 282 283 283 284 284 284 283 282
296 295 295 295 295 294 293 293 292 292 291 291 291 291 291 291 290 290 290 290 290 289 289 289 288 288 288 288 288 287 287 287 287 287 286 286 286 286 285 285 285 285 285 284 284 284 284 284 284 284 284 284 284 284 284 284 284 284 283 283 282 281 281 280 280 280 280 280 280 280 280 280 281 281 282 282 282 282 283 283 283 283 283 282 281
295 295 295 295 294 293 293 292 292 292 291 291 291 291 290 290 290 290 289 289 289 289 289 288 288 288 288 288 287 287 287 287 287 286 286 286 285 285 285 285 284 284 284 284 284 283 283 283 283 284 284 284 284 284 284 283 283 282 282 281 281 280 280 280 280 279 279 279 279 279 280 280 281 281 281 281 282 282 283 283 283 283 282 281 281
295 295 295 294 294 293 292 292 291 291 291 291 290 290 290 289 289 289 289 289 289 288 288 288 288 288 287 287 287 287 287 286 286 286 286 285 285 285 284 284 284 284 283 283 283 283 283 283 283 283 283 283 283 283 283 283 282 281 281 280 280 279 279 279 279 279 279 279 278 278 279 280 280 280 280 281 282 282 282 283 283 282 281 281 280
295 295 294 294 293 292 292 292 291 291 290 290 290 290 289 289 289 289 288 288 288 288 288 288 288 287 287 287 287 286 286 286 286 285 285 285 284 284 284 283 283 283 283 282 282 282 282 282 282 283 283 283 283 282 282 282 281 281 281 280 279 279 278 278 278 278 278 278 277 278 279 279 279 279 279 280 281 281 282 282 282 282 281 280 280
296 295 294 293 292 292 291 291 291 290 290 289 290 289 289 289 289 288 288 288 288 288 287 287 287 287 287 286 286 286 286 286 285 285 285 284 284 284 283 283 283 282 282 281 281 281 281 281 282 282 282 282 281 281 281 281 280 280 280 280 279 278 278 277 277 277 277 277 277 278 278 278 278 278 279 280 280 281 282 282 282 281 280 280 280
296 295 294 293 292 291 291 291 290 290 290 290 289 289 289 289 288 288 288 287 287 287 287 287 287 286 286 286 286 285 285 285 285 285 284 284 283 283 283 282 282 281 281 280 280 280 280 280 281 281 281 281 281 280 280 280 280 279 279 279 279 279 278 277 277 277 277 277 277 277 278 278 278 278 279 279 280 280 281 281 281 281 280 280 280
295 294 294 293 292 291 291 290 290 290 290 289 289 289 289 288 288 288 288 287 287 287 287 286 286 286 286 285 285 285 285 285 284 284 284 283 283 283 282 282 281 281 280 279 279 279 279 279 279 280 280 280 280 279 279 279 279 279 279 279 279 278 278 277 277 277 277 277 277 277 277 278 278 278 278 279 279 279 279 280 280 280 280 280 280
294 293 292 292 291 291 291 290 290 290 289 289 289 288 288 288 288 287 287 287 287 287 286 286 286 286 285 285 285 285 284 284 284 284 283 283 283 282 282 281 281 280 279 279 279 279 278 278 278 278 279 279 279 279 279 279 278 278 278 278 278 278 278 277 277 277 277 277 277 277 277 277 277 277 278 278 279 278 278 279 280 280 279 279 280
293 292 291 290 291 291 290 290 290 290 289 289 288 288 288 288 287 287 287 287 287 286 286 286 286 285 285 285 285 284 284 284 283 283 283 283 282 282 281 281 280 280 279 279 278 278 277 277 277 277 277 277 277 277 277 278 278 278 277 278 278 278 277 277 277 277 277 276 276 276 277 277 277 277 277 278 278 278 278 278 279 279 279 279 279
292 291 291 290 290 290 290 290 290 289 289 288 288 288 288 287 287 287 287 286 286 286 286 286 285 285 285 284 284 284 283 283 283 283 283 282 282 282 281 281 280 280 279 278 278 277 277 277 277 276 276 276 276 276 276 276 276 276 276 276 277 277 277 277 277 276 276 276 276 276 276 277 277 277 277 277 278 277 277 278 278 279 279 279 279
292 291 291 290 290 290 290 289 289 289 288 288 288 288 288 287 287 287 286 286 286 286 286 285 285 285 284 284 284 283 283 283 282 282 282 282 282 281 281 281 280 280 279 278 277 277 276 276 276 276 275 275 275 275 274 274 274 274 274 275 275 276 276 276 276 276 276 276 276 276 276 276 276 276 276 277 277 277 277 278 278 278 278 279 279
292 291 290 290 290 290 290 289 289 289 288 288 288 288 287 287 287 286 286 286 286 286 285 285 285 284 284 283 283 283 282 282 282 282 282 281 281 281 281 280 280 279 278 278 277 276 276 276 276 275 275 275 275 274 274 274 274 273 273 273 274 274 274 275 275 276 276 276 276 276 276 276 276 276 276 276 277 277 277 277 278 278 278 278 278
291 290 290 289 289 289 289 289 289 289 288 288 288 288 287 287 286 286 286 286 285 285 285 284 284 284 284 283 283 282 282 282 282 281 281 281 281 281 280 280 279 279 278 277 277 276 276 275 275 275 275 275 275 274 274 274 273 273 273 273 273 273 273 273 274 274 275 275 276 276 276 276 276 276 276 276 276 276 277 277 277 277 277 278 278
291 290 290 289 289 289 289 289 288 288 288 288 288 288 287 287 286 286 286 285 285 285 284 284 284 283 283 282 282 282 282 282 281 281 281 281 281 280 280 279 279 278 277 277 276 276 275 275 275 275 275 274 274 274 274 274 273 273 273 273 273 273 273 272 273 273 273 274 274 275 275 275 276 276 276 276 276 276 276 277 277 277 277 277 278
291 290 290 289 289 289 288 288 288 289 288 288 288 288 287 287 286 286 285 285 285 284 284 284 283 283 283 282 282 282 281 281 281 281 281 280 280 279 279 278 278 277 277 276 276 275 275 275 274 274 274 274 274 274 274 273 273 273 273 273 273 273 272 272 272 272 272 272 273 273 274 274 275 275 276 276 276 276 276 276 276 277 277 277 277
291 290 290 289 289 289 288 288 288 288 288 288 288 287 287 286 286 286 285 285 284 284 283 283 283 283 282 282 282 282 281 281 281 280 280 280 279 278 278 277 277 277 276 276 275 275 275 274 274 274 274 273 273 273 273 273 273 273 273 273 273 273 272 272 272 272 272 272 272 272 272 273 273 274 275 275 275 276 276 276 276 276 276 277 277
290 290 289 289 289 288 288 288 288 288 288 288 287 287 286 286 285 285 285 284 284 283 283 283 283 282 282 282 282 281 281 281 280 280 279 278 278 277 277 276 276 276 275 275 275 275 274 274 274 273 273 273 273 273 273 273 273 273 272 272 272 272 272 272 272 272 272 272 272 272 272 272 272 273 273 274 275 275 276 276 276 276 276 276 276
290 289 289 289 288 288 288 288 288 287 287 287 286 286 286 285 285 285 284 284 283 283 283 283 282 282 282 281 281 281 280 280 279 279 278 278 277 276 276 276 276 275 275 275 274 274 274 274 273 273 273 273 273 273 273 273 273 272 272 272 272 272 272 271 271 271 271 271 272 272 272 272 272 272 272 272 273 274 275 275 275 275 276 276 276
290 289 289 288 288 287 287 287 287 287 286 286 286 286 285 285 284 284 284 283 283 283 282 282 282 281 281 281 280 280 280 279 278 278 277 277 276 276 276 275 275 275 275 274 274 274 274 274 273 273 273 273 273 273 273 273 273 272 272 272 272 271 271 271 271 271 271 271 271 271 271 272 271 271 271 271 272 272 273 274 274 275 275 275 276
289 288 288 288 287 287 287 287 287 287 286 285 285 285 285 284 284 284 283 283 282 282 282 281 281 280 280 280 280 279 279 278 278 277 276 276 276 275 275 275 275 274 274 274 274 274 274 273 273 273 273 273 273 273 273 273 273 273 272 272 272 271 271 271 271 271 271 270 271 271 271 271 271 271 271 271 271 271 272 273 274 274 275 275 275
288 288 288 287 287 287 287 287 287 286 286 285 285 285 284 284 283 283 282 282 282 282 281 281 280 280 279 279 279 278 278 277 277 276 276 275 275 275 275 274 274 274 274 274 274 274 273 273 273 273 273 273 273 273 273 273 273 273 273 272 272 271 271 271 271 270 270 270 270 270 270 271 271 271 270 270 271 271 271 271 272 273 274 274 275
288 288 288 287 287 287 286 286 286 285 285 284 284 284 283 283 282 282 282 281 281 281 281 280 280 279 279 278 278 277 277 277 276 276 275 275 275 274 274 274 274 274 273 273 273 273 273 273 273 273 273 273 273 273 273 273 273 273 273 273 272 272 272 271 271 271 270 270 270 270 270 270 270 270 270 270 270 270 271 271 271 272 273 274 274
288 287 287 287 286 286 286 286 286 285 284 283 283 283 282 282 281 281 281 281 281 280 280 280 279 278 278 278 277 277 276 276 275 275 275 274 274 274 274 273 273 273 273 273 273 273 273 273 273 273 273 272 273 273 273 273 273 273 273 273 273 273 272 272 271 271 270 270 270 270 270 270 270 270 270 270 270 270 270 270 270 271 272 273 273
287 287 286 286 286 286 286 286 285 284 283 282 282 281 281 281 280 280 280 280 280 280 280 279 278 278 277 277 277 276 276 275 275 274 274 274 274 273 273 273 273 273 273 272 272 272 272 272 272 272 272 272 272 272 272 272 272 272 272 273 273 273 273 272 272 272 271 270 270 270 270 270 270 270 270 270 270 270 270 270 270 270 271 271 272
287 286 286 285 285 285 285 285 285 283 283 282 282 281 281 281 280 279 279 279 279 279 279 278 277 277 277 277 276 275 275 275 274 274 274 273 273 273 273 273 272 272 272 272 272 272 272 272 272 272 272 272 272 272 272 272 272 272 272 272 272 273 273 273 272 272 271 271 270 270 270 270 270 270 270 270 270 270 270 270 270 270 270 270 271
Wind_Speed
15 15 16 17 18 19 20 20 21 22 23 24 24 25 25 23 22 22 22 20 19 16 14 11 10 9 8 7 7 7 8 7 7 5 4 3 3 2 2 1 1 2 3 5 6 7 9 11 13 15 16 17 17 18 20 20 22 23 23 25 26 24 25 27 33 45 53 52 52 53 52 52 55 53 52 54 55 53 54 54 53 53 53 54 54
12 14 15 16 17 18 19 20 21 22 22 22 22 22 21 19 17 17 15 14 13 11 10 9 8 7 8 8 8 8 8 7 6 4 4 3 2 2 1 1 1 2 4 6 8 9 11 12 14 16 17 18 19 20 22 22 23 26 26 26 28 27 26 28 32 40 50 56 55 55 55 54 56 56 55 56 57 57 57 57 55 55 55 55 56
11 13 14 15 16 17 18 19 20 20 20 20 19 18 17 15 15 14 13 12 11 10 9 8 8 9 9 9 9 8 7 6 5 4 3 2 2 2 1 1 2 4 5 7 9 11 13 14 15 17 19 20 20 21 23 25 26 28 29 29 30 31 30 30 33 38 46 55 58 58 57 57 58 58 56 56 57 57 58 58 57 57 57 57 57
11 12 12 13 14 15 16 17 17 17 17 16 16 15 15 15 16 14 13 12 10 10 10 10 10 10 10 9 8 7 6 5 5 4 3 2 1 1 1 3 4 6 8 10 12 13 14 16 17 19 21 22 23 24 26 28 30 31 32 33 33 35 35 34 35 38 43 52 58 59 59 58 59 59 57 57 58 57 58 59 58 58 59 58 57
10 11 11 12 13 13 14 15 15 15 16 16 16 16 17 16 15 13 12 12 12 12 12 12 12 11 10 9 8 7 6 5 5 4 3 2 1 2 4 6 7 9 11 12 13 14 15 17 19 21 23 25 26 28 30 31 33 34 35 36 36 37 38 37 38 39 41 48 55 59 59 59 60 59 56 56 58 59 59 59 58 57 58 58 56
11 11 12 12 13 15 16 16 17 18 18 18 17 16 15 14 13 13 13 13 14 14 13 12 11 10 9 8 7 7 6 5 4 3 1 1 3 4 6 8 9 10 11 13 14 15 17 19 21 23 25 28 30 31 33 33 35 36 36 36 37 37 39 39 39 40 42 46 51 56 59 60 60 59 56 53 53 56 58 59 59 56 54 55 57
12 13 13 14 15 16 17 18 18 18 18 17 16 15 15 15 15 15 15 15 14 13 13 12 11 10 9 8 7 6 5 4 2 1 2 3 5 6 7 9 10 10 12 14 15 17 20 21 24 26 28 30 32 33 35 35 36 36 36 37 38 38 40 40 40 40 42 46 49 53 56 58 58 58 56 53 51 51 51 54 58 59 56 56 58
13 13 14 15 16 16 17 17 17 17 16 16 15 15 16 16 16 16 15 15 14 13 12 12 11 10 9 8 7 5 3 2 1 2 3 5 6 7 8 9 10 12 13 16 18 20 22 24 26 28 30 31 32 34 35 36 37 37 37 37 38 39 40 41 41 41 42 44 48 51 53 55 57 56 56 53 51 51 50 50 54 59 59 58 58
14 15 15 16 16 16 17 16 16 16 16 17 17 17 17 17 17 16 16 15 14 13 13 12 11 10 9 7 5 4 2 2 2 3 4 6 7 8 10 11 13 15 16 18 20 22 24 26 28 29 31 32 32 33 34 34 36 38 38 38 39 40 41 41 41 40 40 42 47 49 49 52 54 55 55 53 51 52 52 51 52 54 56 58 60
15 16 17 17 17 17 17 17 17 18 18 19 19 18 18 18 17 17 17 16 15 14 13 12 11 9 8 6 4 3 2 2 3 4 5 7 8 10 12 14 16 18 20 21 23 25 26 28 29 30 31 32 32 33 34 35 36 38 39 39 39 40 41 42 42 39 37 39 44 46 45 49 52 52 52 52 51 51 52 51 52 55 57 60 62
16 17 18 18 18 18 18 19 19 20 20 19 19 19 18 18 17 17 17 16 15 14 12 11 10 8 7 5 3 2 2 3 4 5 7 9 10 12 14 16 18 20 23 25 26 27 28 29 29 30 31 32 34 35 36 38 38 39 39 39 39 39 39 41 42 41 38 37 41 43 43 46 50 50 50 51 50 51 51 52 54 56 56 57 59
17 18 19 19 20 20 19 20 20 20 20 20 20 19 19 19 18 18 17 16 15 14 12 10 9 7 6 5 3 2 2 3 4 6 9 11 13 15 16 18 20 22 24 26 27 28 29 30 31 32 33 35 36 38 39 39 40 40 40 40 39 39 38 37 38 39 38 37 39 42 42 43 46 48 48 49 50 50 51 52 53 54 54 55 57
19 19 20 21 21 21 20 21 21 21 21 21 20 20 19 19 19 18 17 16 14 13 12 10 9 7 6 4 3 2 2 4 5 8 10 12 14 16 19 20 22 24 25 26 27 29 30 32 33 34 35 36 37 38 39 40 41 41 42 42 41 41 39 37 36 35 34 33 36 40 41 41 44 47 47 47 48 50 50 50 51 51 53 54 56
20 21 22 22 22 22 22 22 22 22 22 22 21 21 20 20 19 18 16 15 14 13 11 10 8 7 5 4 2 2 3 5 7 9 12 14 16 18 20 21 23 24 25 27 28 30 31 33 34 35 36 37 37 39 40 41 42 43 43 43 43 42 40 39 37 33 31 30 34 38 40 41 42 45 45 44 45 47 48 49 49 49 50 52 52
22 22 23 23 23 23 23 23 23 23 23 23 22 21 20 19 18 17 16 15 13 12 11 9 8 7 5 3 2 3 5 7 9 11 13 15 17 19 20 21 23 24 25 27 28 30 31 32 34 35 36 37 37 38 40 41 42 43 44 44 44 44 42 40 38 33 30 30 32 36 39 40 41 43 44 44 45 47 48 49 50 51 52 53 53
23 24 24 24 24 24 24 24 24 24 24 23 22 21 20 19 18 16 15 14 13 11 10 9 7 5 4 2 3 4 6 8 10 12 14 16 17 19 20 21 23 24 25 27 28 29 31 32 33 34 35 36 37 37 38 39 41 43 44 45 45 45 44 42 38 35 33 33 34 35 37 37 38 40 40 41 43 45 46 49 51 51 54 55 53
25 25 26 26 26 25 25 25 25 24 24 23 22 21 20 18 17 16 14 13 12 11 9 8 6 4 2 2 4 6 8 10 12 13 15 16 17 19 20 22 23 24 25 27 28 29 30 32 33 34 36 36 36 36 36 38 40 42 43 45 46 47 46 43 40 38 37 37 37 37 36 36 36 37 38 39 40 40 43 47 48 48 52 54 53
26 27 27 27 27 26 26 25 24 24 23 22 22 21 19 18 16 15 13 12 11 10 8 6 4 3 2 3 5 7 9 10 12 14 15 17 18 20 21 22 24 25 26 27 29 30 31 32 33 34 36 36 36 35 34 35 37 39 41 43 46 47 47 45 44 43 42 40 38 36 35 36 37 38 39 39 38 37 39 43 45 46 49 51 50
27 27 27 27 27 27 26 25 24 24 23 22 21 20 18 17 15 14 13 11 10 9 7 5 3 2 3 5 6 8 9 10 12 14 16 18 19 20 22 23 25 26 27 29 30 31 32 32 33 34 35 35 35 34 33 33 34 36 38 40 42 45 45 45 45 45 44 42 39 38 37 37 37 38 39 39 39 38 38 40 42 43 45 47 48
27 28 28 28 28 27 27 26 24 23 22 21 20 18 17 16 14 13 13 11 9 8 6 4 3 3 4 5 6 7 9 10 12 14 16 18 20 21 23 24 26 27 28 30 31 32 32 33 33 34 34 34 34 33 33 32 31 33 35 35 36 39 41 42 42 41 40 40 40 40 40 39 39 39 39 39 39 39 39 40 40 41 42 43 45
29 29 29 29 30 29 28 26 24 23 21 20 19 18 16 15 14 13 12 10 8 7 5 4 4 4 4 6 7 8 9 11 12 14 16 18 20 22 23 25 27 28 29 30 31 32 33 33 33 33 34 34 34 34 34 33 32 32 32 31 31 33 35 37 39 37 37 38 39 40 41 42 43 42 41 40 39 39 39 41 40 40 40 41 43
31 31 31 31 31 30 28 26 24 22 21 19 18 17 16 15 13 12 11 9 8 7 6 5 4 4 5 6 7 8 9 11 12 14 16 18 20 21 23 25 26 28 29 30 31 32 32 33 33 34 34 34 34 35 35 35 33 32 31 29 29 31 31 33 34 34 34 36 38 41 43 44 45 45 44 42 41 41 41 42 42 41 40 40 41
33 33 33 33 31 29 27 25 23 21 20 19 17 16 15 14 13 12 11 9 8 7 6 6 5 5 5 6 7 8 9 11 12 14 16 17 19 21 22 24 26 27 29 30 31 31 32 32 33 33 34 34 34 35 35 34 33 32 31 30 30 30 30 30 30 31 32 34 36 39 41 42 43 44 43 42 42 42 43 44 44 43 43 43 43
35 35 34 32 30 27 25 23 22 20 19 18 17 15 15 14 13 12 11 10 9 8 7 6 6 6 6 6 7 8 9 11 12 14 16 17 19 20 22 23 24 25 27 28 29 30 31 32 32 33 33 33 34 34 33 33 32 32 31 31 30 30 30 30 29 29 30 32 34 36 38 39 40 41 41 41 42 43 43 44 45 44 44 45 45
35 34 32 30 28 26 24 23 22 20 19 18 16 16 15 14 13 12 12 11 10 9 9 8 7 6 6 6 7 8 9 11 13 14 16 17 19 20 21 22 23 24 26 27 28 29 30 31 31 32 32 33 33 33 33 32 32 32 32 31 31 30 29 29 28 28 29 30 32 34 36 37 38 38 38 39 40 41 43 45 45 45 45 47 46
35 34 32 30 28 26 24 23 22 21 19 18 17 16 15 14 14 13 13 13 12 11 10 8 7 6 5 6 7 8 10 11 13 15 16 17 18 20 21 22 23 24 25 26 27 28 28 29 30 31 32 32 32 32 33 33 33 32 32 32 31 31 30 29 29 28 28 29 31 32 34 35 36 37 37 37 39 40 42 43 45 45 46 47 47
35 33 31 29 27 25 24 23 22 21 20 19 18 17 16 16 15 15 14 13 12 11 10 9 7 6 6 6 7 8 10 11 13 15 16 18 19 21 22 23 24 25 26 27 27 28 28 29 29 30 30 30 31 31 32 33 33 33 33 32 32 31 30 29 28 27 27 27 29 31 33 34 34 35 36 37 38 38 39 39 41 43 45 45 45
34 32 29 27 26 25 24 22 22 21 20 19 18 18 18 17 17 15 14 13 12 11 10 9 8 7 6 7 7 8 10 12 14 16 18 20 21 22 24 24 25 26 27 27 28 28 28 28 28 29 29 30 30 31 32 32 33 33 33 32 32 31 30 30 29 29 28 28 30 32 34 34 34 35 36 37 37 38 38 37 38 40 42 42 42
32 30 29 27 26 25 24 23 22 21 21 20 20 20 19 18 16 15 14 13 12 11 10 9 8 8 7 7 8 9 11 13 15 17 19 20 22 23 24 25 26 26 26 27 27 27 27 27 28 29 30 30 31 32 32 33 34 34 33 32 32 32 32 32 33 32 32 32 33 35 35 35 35 36 37 38 38 37 37 36 36 38 40 40 40
32 30 29 28 27 26 24 24 23 22 22 22 21 21 19 18 16 15 14 14 13 12 11 10 9 9 8 8 9 10 12 13 15 16 18 19 20 22 23 24 25 25 25 25 25 26 26 27 27 28 29 30 31 32 33 34 35 35 35 33 33 33 33 33 34 34 34 34 34 35 36 36 37 37 37 38 39 38 36 35 35 36 38 39 39
33 31 30 28 27 25 25 24 24 24 23 22 21 20 19 18 17 16 16 15 14 13 11 10 10 9 8 9 10 11 12 13 15 16 18 18 19 20 22 23 23 24 24 24 24 25 25 26 27 28 28 29 30 31 32 33 34 35 36 35 34 33 33 34 34 34 34 34 34 36 36 36 36 36 36 37 38 37 36 35 34 34 36 37 38
32 30 29 28 27 26 26 25 25 24 24 23 21 20 19 19 19 18 17 16 14 13 12 11 10 9 9 9 10 11 12 13 14 16 17 18 19 20 22 23 23 23 23 23 23 24 25 25 26 27 27 28 29 30 31 32 33 34 35 35 35 34 34 34 33 33 33 34 35 36 36 36 36 36 35 35 35 36 36 36 35 35 35 36 36
31 30 29 29 28 28 27 26 25 25 23 22 21 21 20 20 20 19 17 16 15 14 13 12 11 10 10 10 10 10 11 13 14 15 17 18 19 20 21 22 22 22 22 22 23 24 24 24 25 26 26 27 28 29 29 30 31 32 33 33 34 34 34 33 32 32 32 32 33 35 36 36 36 36 36 34 34 35 37 37 35 35 35 36 36
31 30 29 29 29 28 27 26 25 24 23 23 22 22 21 21 20 19 18 17 16 15 13 12 12 11 11 11 11 11 11 12 14 15 17 18 19 20 21 21 22 22 22 23 23 24 24 24 24 25 26 27 27 28 28 29 29 30 30 31 31 32 33 33 33 33 32 32 32 33 34 35 35 37 37 36 34 35 37 36 35 35 34 35 35
32 31 31 30 29 28 26 26 25 25 24 24 23 22 22 21 20 19 18 18 17 16 15 14 13 13 12 12 11 11 12 12 14 15 17 18 19 20 20 20 20 21 22 22 22 22 23 24 24 25 26 26 27 28 28 28 29 29 29 30 30 31 32 32 33 33 33 32 32 32 33 34 34 35 36 36 34 35 37 36 35 34 33 33 33
33 33 32 31 30 28 27 27 26 26 25 25 24 23 22 21 20 20 19 19 19 17 16 15 14 14 13 13 12 12 12 13 14 15 17 18 19 19 20 20 21 22 22 22 22 21 21 22 23 24 25 26 26 27 28 28 28 28 28 29 29 30 31 31 32 33 33 32 32 32 32 32 32 33 35 36 34 34 35 35 34 33 32 32 31
34 34 33 32 31 30 29 28 28 27 26 26 25 24 23 22 22 21 21 21 21 19 18 17 15 15 14 14 13 12 13 13 14 15 16 18 19 20 21 22 22 23 23 23 22 21 21 21 21 22 24 25 26 27 27 28 28 28 28 28 28 29 30 30 31 31 32 32 32 32 32 31 31 31 33 35 34 34 34 34 33 32 31 31 30
35 34 34 33 32 31 30 30 29 29 28 27 26 25 24 23 23 23 24 23 22 20 19 18 17 17 16 14 13 13 13 14 15 16 17 18 19 19 21 22 22 23 23 23 22 22 21 20 21 21 22 24 25 26 27 28 28 29 29 29 28 28 28 29 29 30 31 31 31 32 32 32 31 30 30 32 33 33 33 34 33 32 31 30 29
36 35 35 34 33 32 32 31 31 30 29 28 27 26 25 25 26 26 26 25 23 21 20 19 18 17 16 15 14 14 14 14 15 15 16 18 19 20 20 21 21 22 22 22 22 21 21 20 21 21 22 23 25 26 27 28 29 29 30 30 30 29 28 29 30 30 30 31 31 31 31 31 31 29 28 29 31 32 33 33 32 32 31 30 29
37 36 36 35 35 34 34 33 32 31 30 29 29 28 27 28 28 28 27 26 24 22 21 20 19 18 17 16 16 15 15 15 15 15 16 18 19 19 20 20 20 20 21 21 22 21 20 20 20 20 21 22 24 26 27 28 29 30 30 30 31 30 29 29 29 30 30 31 31 31 30 30 31 30 29 28 28 29 30 31 30 30 30 29 28
37 37 37 37 36 36 36 35 34 33 32 31 30 29 29 30 29 29 28 27 25 23 22 20 19 19 18 18 17 16 15 15 15 16 17 17 18 18 18 19 19 19 20 21 21 21 21 20 20 20 21 22 23 25 27 27 29 29 30 30 31 31 30 29 29 29 30 30 30 31 30 30 29 30 29 28 28 27 27 28 29 29 29 28 28
38 38 38 38 38 38 37 36 35 34 33 32 32 31 32 31 31 30 30 28 25 23 22 21 20 20 19 19 18 17 16 16 16 16 17 17 17 17 17 18 18 19 19 20 21 22 21 21 20 20 20 21 23 24 26 27 29 29 30 30 30 31 31 30 29 29 29 29 29 30 30 30 29 28 28 28 28 27 26 26 27 28 28 28 28
39 39 39 39 39 38 37 36 36 35 35 34 33 33 33 32 32 31 30 28 26 24 22 22 21 20 20 19 18 18 17 17 16 16 16 16 16 16 16 17 17 17 18 19 20 22 22 22 21 21 21 21 23 24 25 27 29 30 30 30 30 30 31 31 31 30 30 30 29 29 29 29 29 28 27 27 27 27 26 26 26 26 27 27 27
41 41 41 41 40 39 38 37 37 36 35 34 34 34 34 33 33 32 30 28 26 24 23 22 22 21 20 19 18 18 18 17 17 16 16 16 16 15 16 16 16 16 17 18 19 21 22 22 22 22 21 21 22 23 25 26 28 30 31 31 31 31 30 31 31 31 30 30 30 30 29 29 28 27 27 26 26 27 27 26 25 25 25 25 25
43 43 43 42 41 40 39 38 38 37 36 36 36 36 35 35 34 32 30 28 26 24 23 23 22 21 20 20 19 18 18 17 17 16 16 16 16 15 15 15 15 15 16 16 18 19 20 21 22 22 22 22 22 23 24 25 26 28 30 31 31 31 30 30 30 30 30 30 30 30 29 29 28 27 27 27 26 26 26 25 24 24 23 23 23
44 43 43 42 41 40 40 39 39 39 39 39 38 37 36 35 34 32 30 28 26 25 24 23 22 21 20 20 19 19 18 17 17 17 16 16 16 16 16 15 15 15 15 16 17 18 18 19 21 22 22 22 22 23 23 24 25 26 28 29 30 30 30 30 30 29 29 29 29 29 30 29 28 27 27 26 26 25 24 24 23 23 22 21 21
44 44 43 43 42 42 42 41 41 40 40 40 39 38 36 35 34 32 30 29 27 26 24 23 22 21 20 20 19 19 18 18 17 17 17 17 17 17 16 15 15 15 15 15 16 17 17 18 20 21 22 23 24 24 24 24 25 25 26 27 28 28 29 29 29 29 28 28 28 28 29 29 28 27 26 26 25 25 24 23 23 22 21 20 20
46 45 45 44 44 43 42 41 40 40 40 40 39 37 36 35 34 32 30 29 27 25 24 23 22 21 20 20 19 19 18 18 18 17 18 18 18 17 17 16 16 15 15 15 15 16 17 18 19 20 22 23 24 25 25 25 25 26 26 26 26 27 27 28 28 28 28 28 27 27 27 27 27 27 26 26 25 25 24 24 23 22 21 20 19
47 47 46 45 45 44 42 41 40 41 41 39 38 36 35 34 32 31 29 28 26 25 24 24 23 22 21 20 19 19 19 19 18 18 19 19 18 18 18 17 17 17 16 15 15 16 17 18 19 20 22 23 24 25 26 26 26 27 26 26 26 26 26 27 28 28 28 28 27 26 26 26 26 26 26 26 25 24 24 23 22 21 21 20 19
49 48 47 46 46 44 43 42 42 42 40 38 36 35 33 32 31 30 28 27 27 25 24 23 22 21 21 21 20 20 20 20 19 20 20 19 19 20 19 19 19 19 18 17 17 17 18 19 20 21 22 23 24 25 26 27 27 28 28 27 26 26 26 26 26 27 27 28 28 26 25 25 25 26 25 25 25 24 23 22 22 21 21 20 19
50 48 47 47 45 44 43 43 42 41 40 38 36 35 34 32 31 29 28 28 27 25 24 23 22 22 22 21 21 21 21 21 21 21 21 20 21 21 21 21 21 21 20 20 20 19 20 21 21 22 23 24 25 26 27 27 28 29 29 29 28 27 26 26 26 26 26 27 28 27 26 25 25 25 25 25 25 24 23 22 21 21 20 20 20
Wind_Direction
198 203 207 209 212 214 217 219 219 221 221 223 226 227 229 232 233 234 234 232 226 217 208 197 190 195 201 212 224 230 232 228 225 220 206 204 210 215 237 266 309 343 347 341 345 345 341 335 329 327 328 329 330 329 326 325 324 322 320 319 318 316 315 310 303 303 305 306 307 308 309 310 309 309 311 311 310 311 309 308 307 305 303 302 301
191 197 200 203 207 209 212 215 216 218 218 218 221 224 227 228 226 222 212 199 188 178 178 181 188 200 206 212 213 209 206 199 193 191 183 183 182 171 148 83 23 358 350 339 337 334 330 327 325 325 326 328 330 329 326 325 323 321 320 319 317 315 313 309 304 303 304 305 306 307 308 309 308 308 310 309 309 309 308 306 306 304 303 303 301
191 196 198 200 204 206 209 213 216 218 217 217 219 221 220 212 202 193 179 171 169 171 180 189 195 199 198 197 193 186 184 178 173 175 167 158 142 123 92 47 3 342 337 332 330 328 327 328 328 327 328 329 330 328 326 325 323 321 321 320 318 316 313 310 306 304 304 305 306 307 308 308 307 307 308 307 307 307 306 305 305 305 304 305 304
190 193 194 196 200 202 204 207 210 211 210 208 206 200 190 180 174 171 168 168 172 178 184 185 186 186 182 180 178 175 176 172 167 166 160 153 139 108 358 343 338 336 336 334 333 332 331 332 331 331 330 329 330 329 326 325 324 322 321 321 319 316 314 311 308 306 305 304 304 304 306 306 305 305 307 308 307 307 306 306 307 306 306 305 304
189 190 188 188 190 189 189 190 190 190 187 183 179 173 167 164 164 166 169 173 175 176 177 175 173 173 172 173 175 175 175 173 171 167 162 166 265 320 333 339 341 342 340 337 336 335 335 335 334 333 332 330 330 328 326 325 323 322 321 320 318 315 313 311 310 307 305 304 303 302 302 303 304 305 308 310 310 309 309 308 308 307 306 305 303
188 186 182 180 179 176 175 174 173 171 170 168 166 164 161 162 165 167 169 171 171 169 168 168 167 169 172 173 174 177 176 173 172 171 199 294 327 334 341 345 343 342 340 338 338 338 337 336 335 334 333 330 328 326 325 323 321 320 319 318 316 315 312 311 311 309 306 304 304 302 302 303 305 306 309 311 310 310 309 308 307 307 306 304 303
190 186 182 178 175 173 170 169 167 165 165 164 162 162 162 164 168 167 166 165 165 165 165 167 168 170 175 176 177 179 176 177 190 223 320 332 341 341 341 341 339 340 340 340 339 338 337 336 335 333 331 329 327 325 324 322 320 320 320 319 317 316 314 313 312 311 309 307 305 304 304 305 306 307 309 311 310 309 310 310 308 307 306 305 304
193 189 185 179 176 174 170 168 166 165 164 163 163 164 164 164 166 164 162 162 164 165 167 170 172 173 174 174 175 178 183 201 261 324 339 339 338 335 335 335 338 341 341 340 339 337 335 334 332 330 329 327 326 325 324 323 321 320 321 321 319 318 316 316 315 313 312 309 307 306 307 307 308 309 311 312 312 311 311 310 307 307 308 307 305
195 190 186 180 177 175 172 169 167 166 166 165 164 164 164 163 163 162 162 165 167 169 171 171 171 170 170 173 177 183 204 243 305 325 329 332 331 334 338 338 339 339 338 338 336 334 332 331 330 329 327 326 325 324 323 323 322 321 322 323 322 321 319 318 317 315 313 310 309 308 308 308 309 310 311 312 312 311 310 310 307 306 307 305 303
193 189 184 181 178 176 174 171 169 167 166 165 164 163 164 163 163 164 165 168 170 170 170 168 167 169 172 176 183 191 233 276 306 318 325 333 337 340 341 339 338 336 335 335 334 332 331 330 328 327 326 325 323 322 322 322 323 323 323 324 324 322 321 320 318 317 313 310 309 309 308 307 308 310 311 311 312 311 310 309 307 306 306 304 303
191 189 186 182 179 177 174 170 168 167 166 166 165 164 165 166 166 168 168 169 169 167 168 168 167 170 173 174 185 209 263 297 317 328 334 338 339 339 338 336 336 335 334 334 333 332 331 329 328 327 326 325 324 324 325 325 325 324 324 324 323 322 322 320 319 318 314 309 308 308 307 306 308 310 310 310 311 310 308 307 306 307 307 306 305
192 191 186 182 178 174 172 169 168 168 167 167 167 167 168 169 168 169 168 167 167 165 166 168 168 168 172 177 192 219 273 313 329 334 335 336 336 336 336 336 336 336 335 335 333 332 331 330 330 330 330 331 330 329 328 327 326 325 324 324 324 323 322 320 318 317 315 311 308 308 307 308 308 309 310 312 312 311 310 309 308 307 306 305 303
192 190 185 181 178 173 172 172 171 170 169 170 171 170 171 170 169 169 168 166 166 167 168 171 171 171 175 183 199 230 296 321 329 331 332 333 335 336 336 337 337 336 336 335 334 334 333 333 334 334 334 334 333 331 329 327 326 325 325 325 325 324 324 322 320 318 316 313 309 307 309 310 310 310 313 315 315 314 313 312 311 309 306 304 303
189 188 184 181 178 175 175 175 174 174 173 173 174 172 172 172 170 170 170 168 168 170 172 173 172 172 176 186 208 266 306 319 327 329 332 334 335 337 337 336 336 336 335 336 336 337 337 336 336 336 335 334 333 331 330 328 328 327 328 327 326 326 325 325 325 322 317 313 309 308 310 312 311 312 314 315 313 312 311 311 312 311 308 307 306
187 187 185 182 180 178 176 176 177 177 175 175 175 173 173 174 172 172 171 170 171 173 173 171 172 175 181 199 243 294 313 322 330 331 333 335 335 335 336 335 335 336 337 339 339 338 338 338 337 336 335 335 334 333 332 331 330 329 328 327 327 327 327 328 328 325 319 315 312 310 311 313 313 313 314 314 312 310 309 307 306 306 305 305 306
188 188 188 185 181 179 178 178 179 178 176 176 174 173 174 175 175 175 174 173 173 172 171 172 175 184 193 232 285 310 322 327 332 331 332 333 333 333 334 334 335 338 339 340 340 340 339 338 337 336 335 336 336 336 335 333 330 329 329 328 327 327 328 329 329 325 322 319 317 315 314 314 314 314 314 313 313 314 314 310 308 308 306 303 302
191 191 189 186 182 180 180 180 181 179 177 176 175 175 177 177 177 176 174 175 173 172 175 176 179 190 208 272 308 321 327 329 329 329 329 330 331 333 334 336 338 339 340 341 340 340 339 338 338 337 337 339 339 338 337 334 332 330 329 328 327 327 328 329 327 325 323 322 321 320 319 318 318 318 316 315 317 320 318 313 312 313 308 303 300
194 192 189 186 182 180 180 181 183 180 177 177 178 179 180 179 178 174 173 176 176 176 181 183 183 199 256 304 317 323 326 326 327 327 329 331 334 336 337 339 340 341 341 341 340 339 340 341 342 341 341 341 341 341 339 335 332 331 329 329 328 328 328 328 326 324 323 321 321 323 324 324 324 323 322 322 323 324 320 314 315 314 309 305 303
195 192 189 185 183 181 180 182 184 183 180 180 181 182 181 179 179 176 175 180 182 182 183 186 198 237 291 309 316 320 322 324 327 329 332 335 337 339 340 340 341 341 341 341 341 341 343 343 344 344 343 342 341 340 338 336 333 331 330 330 330 328 329 328 325 323 323 322 324 325 326 327 327 327 327 327 327 327 324 320 319 317 313 310 308
195 192 190 187 185 184 182 183 185 184 184 183 182 182 181 180 179 178 179 182 184 186 185 191 224 263 291 303 310 316 320 326 330 332 335 337 338 341 342 341 340 341 341 342 342 343 344 345 346 345 343 342 341 339 338 337 334 331 330 331 330 327 325 323 321 322 323 324 325 325 325 327 328 329 329 328 328 327 325 323 322 320 317 315 313
194 192 191 189 187 186 184 184 185 185 185 185 184 183 181 181 181 180 182 186 187 191 198 209 240 267 284 297 308 316 322 329 332 333 336 339 340 342 341 340 341 341 342 342 343 343 345 346 346 345 344 343 342 339 338 336 333 331 332 331 326 322 319 318 319 322 324 323 323 322 323 326 327 328 329 329 329 329 327 327 327 325 322 319 316
194 193 191 190 188 186 185 185 185 185 185 186 187 186 183 182 184 184 188 193 195 200 212 224 243 266 283 296 307 315 322 328 332 336 339 340 341 341 340 341 342 341 341 342 342 343 344 345 346 346 345 344 341 339 336 334 332 332 333 330 326 324 322 320 320 322 322 322 322 321 321 323 325 326 327 329 330 331 332 331 331 329 327 324 319
194 193 191 190 188 187 186 185 185 186 187 187 188 189 188 186 187 191 195 200 205 210 219 229 244 264 278 289 301 312 322 328 332 337 339 339 339 340 341 342 342 341 341 341 341 342 343 345 347 347 345 343 340 338 335 333 332 332 334 333 332 331 330 327 325 323 322 321 321 320 320 322 324 326 328 330 331 333 334 333 333 332 330 328 324
193 191 190 189 187 187 187 187 188 189 190 190 189 191 193 192 193 198 201 205 211 216 222 231 242 255 268 282 298 312 322 328 333 336 337 338 338 339 341 342 341 339 339 339 340 342 344 346 347 346 344 342 339 335 333 332 332 334 335 335 334 334 334 333 330 328 325 324 323 323 322 323 326 328 329 331 332 333 333 333 333 332 331 329 327
192 190 190 189 189 190 190 190 191 191 191 192 193 195 199 201 202 206 209 211 216 219 223 229 235 246 263 283 301 314 324 330 333 334 335 336 338 338 339 339 338 337 338 340 342 343 345 345 345 344 342 339 335 333 331 332 333 334 335 335 336 337 338 336 335 333 331 329 328 327 325 325 327 328 330 331 332 333 334 333 332 332 332 331 330
192 191 191 191 191 193 193 193 192 192 193 195 197 200 206 209 211 214 214 215 218 220 222 228 234 244 265 287 305 316 323 327 330 331 332 334 336 336 337 337 337 338 339 340 341 342 344 344 344 343 341 337 334 333 332 332 333 334 337 339 340 342 344 344 342 340 336 332 329 327 328 329 329 330 331 332 332 333 334 334 333 333 335 335 333
193 192 192 193 194 195 196 196 196 196 197 200 202 206 210 213 215 218 217 218 220 221 224 232 239 249 268 289 304 314 320 323 326 329 330 333 335 335 336 336 337 337 337 338 339 341 344 345 344 342 338 336 335 334 334 334 334 335 339 341 343 345 348 348 349 349 343 336 333 332 332 333 332 332 332 333 333 335 336 336 335 335 338 338 336
195 195 195 197 198 197 198 200 201 201 202 204 207 210 213 214 216 217 219 221 223 226 231 237 244 254 271 289 302 313 319 322 326 329 331 334 335 335 336 336 336 336 336 337 339 341 344 344 342 339 336 336 336 336 336 338 340 341 343 345 345 346 347 347 350 352 350 348 346 342 338 336 335 335 335 335 337 338 339 338 338 339 341 340 337
196 198 199 200 201 201 201 202 204 206 207 207 208 210 212 215 217 218 221 224 226 229 234 241 251 262 277 292 304 314 319 323 327 330 332 334 334 334 335 334 334 334 334 335 338 341 342 341 338 337 337 338 338 339 340 341 343 345 347 348 347 347 347 348 349 350 351 354 353 348 344 342 341 340 340 339 340 342 343 342 342 342 343 342 339
199 200 201 202 203 204 204 205 206 208 210 211 212 213 214 216 218 220 225 228 229 233 238 246 257 268 282 296 306 314 318 322 327 329 331 332 332 332 331 330 330 331 333 335 338 339 338 337 336 337 339 339 340 343 344 345 346 346 348 350 350 348 347 348 349 349 351 354 353 349 349 348 346 344 343 342 342 344 345 345 345 345 345 343 342
203 203 203 204 206 206 208 210 210 210 212 214 217 219 220 220 220 222 225 229 234 238 243 250 260 271 285 297 305 311 315 320 324 326 328 329 328 327 326 326 328 330 332 336 337 335 333 334 335 337 339 340 343 345 346 347 348 348 349 350 350 349 348 347 348 348 350 351 351 350 351 351 349 347 346 345 345 345 346 346 347 347 346 345 344
207 207 206 207 208 209 210 212 212 213 215 217 219 221 223 224 224 224 226 230 234 239 245 252 261 271 282 290 296 304 311 316 321 322 324 324 324 324 324 325 327 329 332 333 331 329 331 334 335 337 338 340 343 345 347 348 349 349 350 350 350 350 349 347 346 346 347 348 349 350 351 351 351 350 348 348 348 347 347 347 347 348 348 347 346
210 211 211 210 210 211 212 213 215 217 220 222 223 224 225 227 229 230 230 231 233 238 244 253 261 269 275 281 289 298 306 311 315 317 319 320 321 322 323 324 326 328 330 329 327 328 331 334 334 336 338 339 341 343 346 347 347 348 349 349 349 349 349 347 345 344 345 347 347 348 349 350 351 351 349 349 351 351 350 349 348 348 349 348 348
210 212 214 215 214 215 215 216 218 220 222 224 226 227 227 229 231 234 237 237 238 241 246 252 259 265 270 277 286 294 300 306 310 312 314 316 318 319 321 323 325 326 326 326 327 330 333 334 335 336 336 337 338 339 341 343 343 345 346 347 347 347 347 347 347 347 346 346 345 346 347 348 351 352 350 350 352 353 351 350 349 349 350 349 348
211 212 213 215 217 218 219 220 222 223 224 225 226 227 228 230 233 235 239 241 243 246 248 252 256 261 267 274 282 288 294 301 304 307 310 313 315 317 319 320 321 320 321 324 329 333 334 335 336 335 334 334 335 336 337 338 339 340 342 343 344 344 345 346 348 348 348 347 346 345 345 346 350 353 351 350 353 354 352 351 351 350 350 350 349
214 214 214 215 217 219 221 222 224 225 226 226 226 227 230 232 234 236 238 241 244 245 246 248 253 258 263 268 273 279 287 293 298 303 307 310 312 315 317 317 317 318 321 326 331 335 336 336 335 334 333 334 334 335 335 336 336 337 338 339 340 340 341 343 345 346 347 348 347 346 344 344 346 350 351 350 352 354 353 351 350 350 351 350 349
217 218 218 218 219 220 221 223 224 225 225 226 227 230 232 233 235 238 240 242 244 244 246 248 251 254 257 261 266 275 282 289 295 300 304 308 312 314 315 316 317 320 324 327 330 334 336 335 335 334 333 333 333 334 335 336 336 336 337 337 338 338 338 339 341 342 343 345 347 347 346 344 344 347 349 350 352 354 354 352 350 350 350 350 349
221 222 222 222 222 223 223 224 225 225 225 227 229 231 233 234 237 239 240 242 243 244 246 249 251 253 257 261 267 274 280 286 293 299 304 307 310 311 312 315 317 319 322 325 328 332 334 335 335 334 332 331 331 332 333 334 335 336 337 338 339 339 337 336 336 337 338 341 344 345 345 345 344 345 347 348 350 354 355 352 350 350 349 348 349
223 223 223 223 223 224 225 226 227 227 228 230 231 232 233 234 236 238 238 239 240 240 242 245 249 253 258 262 265 270 276 282 290 295 298 302 304 306 310 313 315 317 320 322 325 328 331 332 333 332 330 329 328 329 330 331 332 334 335 336 337 340 340 338 336 336 336 337 339 341 342 343 344 344 346 346 348 352 354 353 352 351 349 347 348
225 224 224 223 224 225 226 227 228 229 231 233 234 234 235 236 236 237 236 236 237 237 239 242 245 249 253 256 260 266 272 278 285 289 293 297 302 305 308 310 313 315 317 318 320 324 327 329 330 329 328 327 326 326 327 328 329 330 331 332 334 337 340 340 338 337 336 336 336 337 338 340 341 343 345 345 345 348 351 353 353 352 351 348 346
227 227 227 226 227 228 227 228 230 232 233 235 235 236 237 237 236 236 236 236 236 236 238 242 245 248 253 257 261 265 270 276 282 288 293 297 300 303 306 309 311 313 314 315 318 321 324 327 328 328 327 326 324 324 325 325 325 326 327 328 330 332 335 337 338 338 337 337 335 335 335 336 338 340 342 344 343 344 346 350 351 352 352 350 348
230 230 230 230 230 230 230 231 232 233 233 234 235 236 236 236 236 236 236 235 235 236 238 242 246 250 255 260 264 268 272 278 283 288 292 296 299 302 305 307 309 311 312 314 317 319 322 326 328 328 328 327 325 325 324 323 322 322 323 325 326 328 330 333 335 336 337 337 336 336 335 334 335 336 338 340 341 341 343 345 348 350 351 352 351
232 232 232 232 232 232 232 233 234 235 235 234 235 235 235 235 235 235 235 234 234 235 238 243 247 251 256 260 265 269 274 278 283 288 291 294 296 299 301 303 305 308 310 312 315 318 320 324 327 329 330 329 327 325 324 322 321 320 321 322 324 325 326 328 330 332 334 334 335 336 336 335 334 334 335 336 338 339 340 342 344 345 348 351 352
232 232 232 233 233 233 233 234 235 236 236 235 235 235 235 235 235 234 234 234 234 236 239 243 246 251 256 260 264 268 273 277 282 286 288 290 292 293 295 298 300 303 307 310 312 315 318 322 326 330 332 331 328 326 324 322 320 319 319 319 320 322 323 324 326 328 330 331 333 335 335 335 335 335 334 334 335 336 338 340 340 341 343 347 351
233 233 233 233 233 233 233 234 235 236 235 233 233 234 234 234 234 234 234 234 234 235 238 242 245 249 254 258 262 267 271 275 279 281 284 286 287 288 290 293 295 298 302 305 308 311 316 321 325 329 333 333 331 328 325 322 319 317 317 317 317 319 320 321 322 324 325 327 329 331 332 334 336 336 335 334 333 333 334 336 336 336 338 341 346
235 234 234 234 235 235 235 236 237 236 234 233 234 234 234 234 234 233 232 233 233 235 237 240 243 247 251 256 260 264 268 272 275 278 280 282 283 284 286 288 290 293 296 299 302 308 314 319 323 328 332 334 334 333 330 325 321 318 316 315 315 316 317 317 317 319 321 322 324 326 327 330 333 334 334 333 332 330 330 331 331 332 333 335 339
236 236 236 236 236 236 236 236 237 236 235 234 235 235 234 234 233 232 231 231 233 235 237 239 242 245 248 253 258 262 266 269 272 274 277 278 279 280 282 283 285 286 289 293 298 304 310 315 320 325 329 333 335 336 334 330 325 321 317 315 314 314 314 313 313 315 316 317 319 321 323 325 328 331 332 332 331 329 328 327 327 327 328 329 331
237 236 236 236 236 236 236 236 237 236 236 236 236 235 234 233 232 231 232 232 233 235 238 241 243 245 248 252 256 260 264 267 269 271 273 274 275 276 277 278 280 280 282 286 292 298 304 310 315 320 325 329 332 334 335 333 330 325 320 317 315 313 312 311 311 311 312 313 314 316 318 320 323 326 328 329 329 329 328 327 325 324 323 324 324
238 237 237 237 236 236 236 237 238 238 237 237 236 235 234 234 233 233 234 234 236 237 239 242 244 247 250 254 257 261 264 266 268 269 270 271 272 273 274 274 275 276 277 281 285 290 297 302 308 313 318 322 325 328 331 332 331 329 325 320 317 314 312 310 309 308 308 308 309 311 313 316 318 320 323 325 326 326 326 325 323 321 320 319 319
238 237 237 237 236 236 236 237 237 236 235 235 235 235 235 236 236 237 237 238 239 241 242 244 246 249 252 255 258 261 264 266 267 267 268 269 269 270 271 271 272 272 274 277 282 286 292 297 302 307 312 316 319 322 325 327 329 330 328 324 320 316 313 310 308 307 305 304 305 307 310 312 313 315 317 319 321 322 324 324 323 321 319 317 316
239 238 237 237 236 236 237 237 237 236 235 234 234 234 235 236 238 240 241 242 243 244 246 247 249 250 253 256 258 261 263 266 267 267 267 267 267 268 269 269 270 271 273 276 280 285 289 294 299 303 307 311 314 316 319 322 324 326 327 326 322 318 314 311 309 307 304 303 303 305 307 308 309 310 312 314 316 318 320 321 322 321 319 316 313